Terminal Aerodrome Forecast
Issued by NWS Pittsburgh, PA

Current Version | Previous Version | Graphics & Text | Print | Product List | Glossary On
Versions: 1 2 3 4 5 6 7 8 9 10 11 12 13 14 15 16 17 18 19 20 21 22 23 24 25 26 27 28 29 30 31
017
FTUS41 KPBZ 231137
TAFPIT
TAF
KPIT 231137Z 2312/2418 19004KT P6SM BKN150
     FM231600 29006KT P6SM SCT050
     FM240700 36008KT P6SM BKN015
     FM241500 01006KT P6SM BKN035=

USA.gov is the U.S. government's official web portal to all federal, state and local government web resources and services.